| time (UTC) | temp F | wind direction | speed knots | gust knots | rain 1hr in | rain 24hr in | rain mn in | humidity % | barometer mb |
| 20260510131510 | 55 | 56 | 3.5 | 7.8 | 0.00 | 0.00 | 0.00 | 44 | 1021.4 |
| 20260510130004 | 55 | 41 | 3.5 | 7.0 | 0.00 | 0.00 | 0.00 | 43 | 1021.3 |
| 20260510124502 | 55 | 7 | 1.7 | 7.8 | 0.00 | 0.00 | 0.00 | 45 | 1020.9 |
| 20260510123101 | 55 | 350 | 4.3 | 7.8 | 0.00 | 0.00 | 0.00 | 45 | 1020.6 |
| 20260510121558 | 55 | 340 | 2.6 | 7.0 | 0.00 | 0.00 | 0.00 | 45 | 1020.5 |
| 20260510120055 | 55 | 335 | 4.3 | 7.8 | 0.00 | 0.00 | 0.00 | 45 | 1020.1 |
| 20260510114552 | 55 | 330 | 2.6 | 6.1 | 0.00 | 0.00 | 0.00 | 46 | 1019.7 |
| 20260510113057 | 55 | 18 | 2.6 | 7.0 | 0.00 | 0.00 | 0.00 | 43 | 1019.7 |
| 20260510111548 | 56 | 335 | 4.3 | 7.8 | 0.00 | 0.00 | 0.00 | 43 | 1019.4 |
| 20260510110045 | 56 | 340 | 4.3 | 9.6 | 0.00 | 0.00 | 0.00 | 43 | 1019.2 |
| 20260510104544 | 56 | 360 | 6.1 | 10.4 | 0.00 | 0.00 | 0.00 | 43 | 1019.4 |
| 20260510103040 | 57 | 320 | 4.3 | 7.8 | 0.00 | 0.00 | 0.00 | 43 | 1019.2 |
| 20260510101538 | 57 | 3 | 2.6 | 11.3 | 0.00 | 0.00 | 0.00 | 42 | 1018.7 |
| 20260510100034 | 57 | 340 | 3.5 | 7.8 | 0.00 | 0.00 | 0.00 | 43 | 1018.6 |
| 20260510094535 | 58 | 322 | 5.2 | 11.3 | 0.00 | 0.00 | 0.00 | 43 | 1018.1 |
| 20260510093030 | 58 | 351 | 5.2 | 10.4 | 0.00 | 0.00 | 0.00 | 44 | 1018.1 |
| 20260510091530 | 58 | 24 | 2.6 | 7.0 | 0.00 | 0.00 | 0.00 | 47 | 1017.9 |
| 20260510090028 | 58 | 13 | 4.3 | 10.4 | 0.00 | 0.00 | 0.00 | 48 | 1017.7 |
| 20260510084520 | 59 | 19 | 2.6 | 6.1 | 0.00 | 0.00 | 0.00 | 49 | 1017.5 |
| 20260510083019 | 60 | 3 | 4.3 | 9.6 | 0.00 | 0.00 | 0.00 | 45 | 1017.6 |
| 20260510081514 | 60 | 22 | 3.5 | 7.0 | 0.00 | 0.00 | 0.00 | 45 | 1017.4 |
| 20260510080009 | 61 | 345 | 3.5 | 8.7 | 0.00 | 0.00 | 0.00 | 47 | 1017.1 |
| 20260510074507 | 61 | 316 | 3.5 | 7.8 | 0.00 | 0.00 | 0.00 | 47 | 1016.7 |
| 20260510073008 | 61 | 354 | 2.6 | 6.1 | 0.00 | 0.00 | 0.00 | 50 | 1016.5 |
| 20260510071503 | 62 | 16 | 2.6 | 7.0 | 0.00 | 0.00 | 0.00 | 51 | 1016.4 |
| 20260510070106 | 62 | 345 | 0.9 | 6.1 | 0.00 | 0.00 | 0.00 | 53 | 1016.2 |
| 20260510064634 | 63 | 357 | 3.5 | 7.8 | 0.00 | 0.00 | 0.00 | 52 | 1015.8 |
| 20260510063053 | 63 | 22 | 1.7 | 5.2 | 0.00 | 0.00 | 0.00 | 52 | 1015.7 |
| 20260510061551 | 64 | 345 | 0.0 | 4.3 | 0.00 | 0.00 | 0.00 | 54 | 1015.5 |
| 20260510060050 | 64 | 5 | 1.7 | 5.2 | 0.00 | 0.00 | 0.00 | 55 | 1015.4 |
| 20260510054547 | 65 | 353 | 1.7 | 5.2 | 0.00 | 0.00 | 0.00 | 54 | 1015.0 |
| 20260510053047 | 65 | 355 | 1.7 | 4.3 | 0.00 | 0.00 | 0.00 | 53 | 1014.7 |
| 20260510051549 | 65 | 8 | 1.7 | 4.3 | 0.00 | 0.00 | 0.00 | 52 | 1014.4 |
| 20260510050037 | 66 | 32 | 0.0 | 6.1 | 0.00 | 0.00 | 0.00 | 52 | 1014.3 |
| 20260510044535 | 66 | 28 | 1.7 | 6.1 | 0.00 | 0.00 | 0.00 | 51 | 1014.0 |
| 20260510043035 | 66 | 29 | 1.7 | 7.0 | 0.00 | 0.00 | 0.00 | 50 | 1014.0 |
| 20260510041534 | 67 | 356 | 0.9 | 7.0 | 0.00 | 0.00 | 0.00 | 50 | 1013.9 |
| 20260510040038 | 67 | 6 | 1.7 | 6.1 | 0.00 | 0.00 | 0.00 | 51 | 1013.3 |
| 20260510034529 | 67 | 38 | 1.7 | 6.1 | 0.00 | 0.00 | 0.00 | 50 | 1013.0 |
| 20260510033028 | 67 | 60 | 0.0 | 6.1 | 0.00 | 0.00 | 0.00 | 51 | 1012.8 |
| 20260510031531 | 68 | 24 | 2.6 | 7.8 | 0.00 | 0.00 | 0.00 | 50 | 1012.5 |
| 20260510030026 | 69 | 354 | 2.6 | 11.3 | 0.00 | 0.00 | 0.00 | 47 | 1012.3 |
| 20260510024524 | 70 | 357 | 7.0 | 10.4 | 0.00 | 0.00 | 0.00 | 46 | 1012.3 |
| 20260510023020 | 70 | 340 | 1.7 | 5.2 | 0.00 | 0.00 | 0.00 | 48 | 1011.7 |
| 20260510021525 | 70 | 257 | 0.9 | 2.6 | 0.00 | 0.00 | 0.00 | 48 | 1011.0 |
| 20260510020019 | 71 | 301 | 0.0 | 1.7 | 0.00 | 0.00 | 0.00 | 47 | 1010.4 |
| 20260510014513 | 71 | 304 | 0.0 | 4.3 | 0.00 | 0.00 | 0.00 | 47 | 1010.2 |
| 20260510013011 | 71 | 349 | 1.7 | 7.0 | 0.00 | 0.00 | 0.00 | 46 | 1010.1 |
| 20260510011511 | 72 | 313 | 5.2 | 13.0 | 0.00 | 0.00 | 0.00 | 45 | 1009.9 |
| 20260510010010 | 73 | 318 | 3.5 | 11.3 | 0.00 | 0.00 | 0.00 | 44 | 1009.9 |
| 20260510004509 | 73 | 288 | 6.1 | 15.6 | 0.00 | 0.00 | 0.00 | 43 | 1009.3 |
| 20260510003009 | 74 | 353 | 7.8 | 14.8 | 0.00 | 0.00 | 0.00 | 43 | 1009.4 |
| 20260510001509 | 74 | 301 | 4.3 | 10.4 | 0.00 | 0.00 | 0.00 | 44 | 1009.1 |
| 20260510000008 | 75 | 311 | 3.5 | 11.3 | 0.00 | 0.00 | 0.00 | 44 | 1008.8 |
| 20260509234508 | 75 | 349 | 3.5 | 10.4 | 0.00 | 0.00 | 0.00 | 43 | 1008.8 |
| 20260509233007 | 76 | 8 | 8.7 | 13.9 | 0.00 | 0.00 | 0.00 | 42 | 1008.8 |
| 20260509231507 | 76 | 24 | 2.6 | 13.0 | 0.00 | 0.00 | 0.00 | 41 | 1008.7 |
| 20260509230007 | 77 | 309 | 6.1 | 15.6 | 0.00 | 0.00 | 0.00 | 40 | 1008.7 |
| 20260509224506 | 77 | 235 | 5.2 | 14.8 | 0.00 | 0.00 | 0.00 | 40 | 1008.5 |
| 20260509223005 | 77 | 4 | 4.3 | 13.0 | 0.00 | 0.00 | 0.00 | 40 | 1008.4 |
| 20260509221506 | 79 | 340 | 9.6 | 20.9 | 0.00 | 0.00 | 0.00 | 37 | 1008.2 |
| 20260509220005 | 82 | 236 | 7.0 | 15.6 | 0.00 | 0.00 | 0.00 | 30 | 1007.5 |
| 20260509214504 | 83 | 232 | 10.4 | 20.0 | 0.00 | 0.01 | 0.00 | 28 | 1007.3 |
| 20260509213007 | 84 | 262 | 7.8 | 17.4 | 0.00 | 0.01 | 0.00 | 28 | 1007.1 |
| 20260509211503 | 85 | 249 | 7.8 | 19.1 | 0.00 | 0.01 | 0.00 | 27 | 1007.1 |
| 20260509210001 | 85 | 251 | 12.2 | 21.7 | 0.00 | 0.01 | 0.00 | 25 | 1007.3 |
| 20260509204603 | 85 | 253 | 9.6 | 15.6 | 0.00 | 0.06 | 0.00 | 28 | 1007.1 |
| 20260509203057 | 84 | 244 | 8.7 | 15.6 | 0.00 | 0.06 | 0.00 | 29 | 1007.3 |
| 20260509201554 | 83 | 229 | 6.1 | 15.6 | 0.00 | 0.06 | 0.00 | 31 | 1007.4 |
| 20260509200106 | 83 | 247 | 7.8 | 13.0 | 0.00 | 0.06 | 0.00 | 33 | 1007.7 |
| 20260509194554 | 83 | 234 | 7.0 | 11.3 | 0.00 | 0.07 | 0.00 | 33 | 1007.9 |
| 20260509193050 | 82 | 274 | 7.0 | 13.9 | 0.00 | 0.07 | 0.00 | 32 | 1008.1 |
| 20260509191547 | 82 | 251 | 7.8 | 14.8 | 0.00 | 0.07 | 0.00 | 35 | 1008.1 |
| 20260509190043 | 81 | 195 | 3.5 | 16.5 | 0.00 | 0.07 | 0.00 | 37 | 1008.4 |
| 20260509184542 | 81 | 195 | 7.0 | 13.0 | 0.00 | 0.07 | 0.00 | 38 | 1008.6 |
| 20260509183058 | 80 | 222 | 4.3 | 13.0 | 0.00 | 0.07 | 0.00 | 38 | 1008.7 |
| 20260509181538 | 79 | 171 | 5.2 | 14.8 | 0.00 | 0.07 | 0.00 | 40 | 1009.0 |
| 20260509180034 | 78 | 255 | 2.6 | 8.7 | 0.00 | 0.07 | 0.00 | 41 | 1009.0 |
| 20260509174545 | 78 | 236 | 3.5 | 9.6 | 0.00 | 0.07 | 0.00 | 41 | 1009.3 |
| 20260509173030 | 76 | 191 | 4.3 | 9.6 | 0.00 | 0.07 | 0.00 | 45 | 1009.5 |
| 20260509171538 | 76 | 203 | 2.6 | 7.0 | 0.00 | 0.07 | 0.00 | 47 | 1009.7 |
| 20260509170025 | 75 | 216 | 3.5 | 7.8 | 0.00 | 0.07 | 0.00 | 48 | 1009.8 |
| 20260509164522 | 74 | 254 | 1.7 | 4.3 | 0.00 | 0.07 | 0.00 | 46 | 1009.7 |
| 20260509163029 | 73 | 181 | 6.1 | 9.6 | 0.00 | 0.07 | 0.00 | 48 | 1009.7 |
| 20260509161525 | 72 | 209 | 1.7 | 5.2 | 0.00 | 0.07 | 0.00 | 50 | 1009.7 |
| 20260509160014 | 71 | 214 | 1.7 | 6.1 | 0.00 | 0.07 | 0.00 | 55 | 1009.7 |
| 20260509154511 | 70 | 252 | 4.3 | 7.0 | 0.00 | 0.07 | 0.00 | 56 | 1009.8 |
| 20260509153012 | 68 | 264 | 3.5 | 7.0 | 0.00 | 0.07 | 0.00 | 56 | 1009.8 |
| 20260509151510 | 67 | 188 | 2.6 | 7.8 | 0.00 | 0.07 | 0.00 | 58 | 1009.9 |
| 20260509150018 | 67 | 177 | 4.3 | 7.8 | 0.00 | 0.07 | 0.00 | 58 | 1009.8 |
| 20260509144502 | 66 | 187 | 3.5 | 7.0 | 0.00 | 0.07 | 0.00 | 60 | 1009.7 |
| 20260509143103 | 65 | 197 | 1.7 | 4.3 | 0.00 | 0.07 | 0.00 | 62 | 1009.7 |
| 20260509141601 | 64 | 299 | 0.0 | 3.5 | 0.00 | 0.07 | 0.00 | 64 | 1009.7 |
| 20260509140101 | 62 | 214 | 0.9 | 6.1 | 0.00 | 0.07 | 0.00 | 67 | 1009.8 |
| 20260509134550 | 62 | 236 | 3.5 | 8.7 | 0.00 | 0.07 | 0.00 | 67 | 1009.8 |
| 20260509133046 | 60 | 215 | 4.3 | 7.8 | 0.00 | 0.07 | 0.00 | 69 | 1009.6 |